Location: Follega
(52.8850°N, 5.7362°E)
Time: 11:14:53
(UTC+00:00)

CARTOSAT-1 - Pass Details

Date: 02 October 2020
Orbit: 616 x 619 km, 97.8° (Epoch: 20 October)

Event Time Altitude Azimuth Distance (km) Brightness Sun altitude
Exits shadow 21:10:47 22° 341° (NNW) 1,376 5.8 -33.8°
Drops below altitude 10° 21:12:20 10° 344° (NNW) 1,994 6.8 -33.9°
Sets 21:14:32 0° 345° (NNW) 2,904 7.8 -34.1°
